RJA615 OMDB-OJAI

Flight info

Callsign RJA615
Flight time 3h 37m
Altitude 30000
Route ANVIX DCT NOBTO DCT KATIT DCT MIGMA DCT OBSEP DCT BOSOB/N0468F320 DCT AMBAG DCT NAGUB DCT GAS G662 HIL R23 ODBUL Q163 GENEX L53 ELOXI
Aircraft A21N/M-SDE2E3FGHIRWXY/LB1

Departure

Time 2026-04-20 06:10
Airport Dubai International Airport (OMDB)

Arrival

Time 2026-04-20 09:47
Airport Queen Alia International Airport (OJAI)
Time Latitude Longitude Altitude Speed Heading
2026-04-20 05:26 25.25920 55.34406 27 ft 0 kts 211°
2026-04-20 05:58 25.25931 55.34413 27 ft 4 kts 211°
2026-04-20 05:58 25.25954 55.34428 27 ft 4 kts 211°
2026-04-20 05:58 25.25977 55.34444 27 ft 5 kts 211°
2026-04-20 05:59 25.25996 55.34457 27 ft 4 kts 208°
2026-04-20 05:59 25.26018 55.34461 27 ft 5 kts 155°
2026-04-20 05:59 25.26034 55.34444 27 ft 5 kts 121°
2026-04-20 05:59 25.26045 55.34426 27 ft 0 kts 121°
2026-04-20 06:01 25.26023 55.34465 27 ft 9 kts 121°
2026-04-20 06:02 25.26006 55.34533 27 ft 10 kts 66°
2026-04-20 06:02 25.26059 55.34594 27 ft 12 kts 46°
2026-04-20 06:02 25.26119 55.34663 27 ft 13 kts 46°
2026-04-20 06:02 25.26186 55.34738 27 ft 14 kts 44°
2026-04-20 06:03 25.26268 55.34805 27 ft 15 kts 31°
2026-04-20 06:03 25.26344 55.34874 28 ft 15 kts 76°
2026-04-20 06:03 25.26312 55.34983 29 ft 16 kts 121°
2026-04-20 06:03 25.26253 55.35089 28 ft 17 kts 122°
2026-04-20 06:04 25.26187 55.35199 28 ft 18 kts 126°
2026-04-20 06:04 25.26121 55.35317 28 ft 18 kts 120°
2026-04-20 06:04 25.26054 55.35440 27 ft 19 kts 121°
2026-04-20 06:04 25.25983 55.35568 27 ft 20 kts 121°
2026-04-20 06:05 25.25909 55.35701 27 ft 21 kts 122°
2026-04-20 06:05 25.25831 55.35838 27 ft 21 kts 121°
2026-04-20 06:05 25.25753 55.35981 28 ft 22 kts 122°
2026-04-20 06:05 25.25669 55.36126 28 ft 23 kts 122°
2026-04-20 06:06 25.25583 55.36278 28 ft 24 kts 121°
2026-04-20 06:06 25.25495 55.36437 28 ft 24 kts 122°
2026-04-20 06:06 25.25405 55.36596 27 ft 25 kts 121°
2026-04-20 06:06 25.25312 55.36765 27 ft 26 kts 121°
2026-04-20 06:07 25.25214 55.36938 27 ft 27 kts 122°
2026-04-20 06:07 25.25113 55.37118 29 ft 28 kts 121°
2026-04-20 06:07 25.25009 55.37303 29 ft 29 kts 122°
2026-04-20 06:07 25.24901 55.37494 29 ft 30 kts 121°
2026-04-20 06:08 25.24791 55.37692 28 ft 31 kts 123°
2026-04-20 06:08 25.24693 55.37867 28 ft 16 kts 121°
2026-04-20 06:08 25.24692 55.37970 28 ft 15 kts 40°
2026-04-20 06:08 25.24793 55.38013 30 ft 17 kts 338°
2026-04-20 06:09 25.24867 55.37914 31 ft 19 kts 301°
2026-04-20 06:09 25.25056 55.37575 32 ft 87 kts 301°
2026-04-20 06:09 25.25485 55.36802 29 ft 147 kts 301°
2026-04-20 06:09 25.26100 55.35702 115 ft 180 kts 300°
2026-04-20 06:10 25.26735 55.34531 659 ft 177 kts 296°
2026-04-20 06:10 25.27373 55.33360 1215 ft 178 kts 301°
2026-04-20 06:10 25.28028 55.32193 1727 ft 182 kts 301°
2026-04-20 06:10 25.28708 55.30965 2114 ft 193 kts 299°
2026-04-20 06:11 25.29180 55.29528 2458 ft 209 kts 277°
2026-04-20 06:11 25.28976 55.27907 2794 ft 227 kts 250°
2026-04-20 06:11 25.28283 55.26231 3165 ft 244 kts 245°
2026-04-20 06:11 25.27529 55.24547 3729 ft 250 kts 246°
2026-04-20 06:12 25.26763 55.22810 4385 ft 253 kts 246°
2026-04-20 06:12 25.25997 55.21049 5049 ft 255 kts 246°
2026-04-20 06:12 25.25233 55.19277 5711 ft 256 kts 246°
2026-04-20 06:12 25.24242 55.17633 6366 ft 262 kts 225°
2026-04-20 06:13 25.22647 55.16657 6958 ft 269 kts 193°
2026-04-20 06:13 25.20763 55.16595 7567 ft 275 kts 174°
2026-04-20 06:13 25.18929 55.17208 8147 ft 279 kts 149°
2026-04-20 06:13 25.17488 55.18662 8568 ft 288 kts 122°
2026-04-20 06:14 25.16520 55.20651 8946 ft 300 kts 114°
2026-04-20 06:14 25.15616 55.22759 9532 ft 306 kts 114°
2026-04-20 06:14 25.14676 55.24876 10155 ft 308 kts 115°
2026-04-20 06:14 25.13702 55.26993 10773 ft 310 kts 116°
2026-04-20 06:15 25.12701 55.29115 11376 ft 314 kts 117°
2026-04-20 06:15 25.11615 55.31229 11692 ft 328 kts 119°
2026-04-20 06:15 25.10434 55.33449 11943 ft 344 kts 120°
2026-04-20 06:15 25.09191 55.35779 12169 ft 359 kts 120°
2026-04-20 06:16 25.07897 55.38208 12389 ft 375 kts 120°
2026-04-20 06:16 25.06550 55.40738 12603 ft 389 kts 120°
2026-04-20 06:16 25.05269 55.43145 12940 ft 397 kts 120°
2026-04-20 06:16 25.03862 55.45786 13488 ft 401 kts 120°
2026-04-20 06:17 25.02461 55.48412 14012 ft 403 kts 120°
2026-04-20 06:17 25.01039 55.51083 14509 ft 406 kts 120°
2026-04-20 06:17 24.99603 55.53776 15004 ft 408 kts 120°
2026-04-20 06:17 24.98161 55.56480 15492 ft 411 kts 120°
2026-04-20 06:18 24.96707 55.59206 15991 ft 414 kts 120°
2026-04-20 06:18 24.95243 55.61947 16487 ft 416 kts 120°
2026-04-20 06:18 24.93769 55.64707 16977 ft 419 kts 120°
2026-04-20 06:18 24.92285 55.67483 17466 ft 422 kts 120°
2026-04-20 06:19 24.90811 55.70237 17934 ft 425 kts 121°
2026-04-20 06:19 24.89304 55.73053 18371 ft 428 kts 121°
2026-04-20 06:19 24.87789 55.75881 18769 ft 431 kts 121°
2026-04-20 06:19 24.86250 55.78731 19151 ft 434 kts 122°
2026-04-20 06:20 24.84458 55.81410 19534 ft 436 kts 132°
2026-04-20 06:20 24.82229 55.83664 19912 ft 437 kts 144°
2026-04-20 06:20 24.79612 55.85374 20286 ft 439 kts 156°
2026-04-20 06:20 24.76725 55.86469 20667 ft 440 kts 168°
2026-04-20 06:21 24.73695 55.86897 21043 ft 440 kts 180°
2026-04-20 06:21 24.70649 55.86649 21407 ft 440 kts 192°
2026-04-20 06:21 24.67708 55.85746 21790 ft 440 kts 203°
2026-04-20 06:21 24.64988 55.84218 22188 ft 439 kts 214°
2026-04-20 06:22 24.62440 55.82352 22596 ft 441 kts 216°
2026-04-20 06:22 24.59907 55.80435 23002 ft 443 kts 216°
2026-04-20 06:22 24.57352 55.78517 23384 ft 446 kts 216°
2026-04-20 06:22 24.54779 55.76602 23713 ft 448 kts 216°
2026-04-20 06:23 24.52190 55.74688 24041 ft 450 kts 216°
2026-04-20 06:23 24.49582 55.72773 24366 ft 452 kts 216°
2026-04-20 06:23 24.46958 55.70857 24691 ft 454 kts 216°
2026-04-20 06:23 24.44323 55.68930 25016 ft 456 kts 216°
2026-04-20 06:24 24.42576 55.67650 25232 ft 457 kts 216°
2026-04-20 06:24 24.39025 55.65050 25676 ft 460 kts 215°
2026-04-20 06:24 24.36399 55.63131 26053 ft 460 kts 215°
2026-04-20 06:24 24.33736 55.61183 26484 ft 459 kts 215°
2026-04-20 06:25 24.31079 55.59246 26915 ft 458 kts 215°
2026-04-20 06:25 24.29287 55.57939 27206 ft 457 kts 215°
2026-04-20 06:25 24.26642 55.56011 27624 ft 456 kts 215°
2026-04-20 06:25 24.24038 55.54120 28023 ft 455 kts 215°
2026-04-20 06:26 24.21397 55.52201 28423 ft 455 kts 215°
2026-04-20 06:26 24.18770 55.50291 28834 ft 453 kts 215°
2026-04-20 06:26 24.16137 55.48379 29239 ft 452 kts 215°
2026-04-20 06:26 24.13517 55.46474 29630 ft 451 kts 215°
2026-04-20 06:27 24.10904 55.44574 29882 ft 451 kts 215°
2026-04-20 06:27 24.08289 55.42674 29916 ft 451 kts 215°
2026-04-20 06:27 24.03070 55.38883 29892 ft 450 kts 215°
2026-04-20 06:28 23.97844 55.35094 29882 ft 451 kts 215°
2026-04-20 06:28 23.92983 55.30832 29879 ft 448 kts 230°
2026-04-20 06:29 23.91208 55.28048 29879 ft 447 kts 242°
2026-04-20 06:29 23.89929 55.24956 29887 ft 447 kts 248°
2026-04-20 06:29 23.87617 55.18651 29882 ft 447 kts 248°
2026-04-20 06:30 23.85258 55.12359 29881 ft 447 kts 248°
2026-04-20 06:30 23.82876 55.06080 29882 ft 447 kts 248°
2026-04-20 06:31 23.80493 54.99803 29879 ft 448 kts 248°
2026-04-20 06:31 23.78098 54.93510 29882 ft 449 kts 248°
2026-04-20 06:32 23.75700 54.87215 29880 ft 449 kts 248°
2026-04-20 06:32 23.73299 54.80922 29879 ft 449 kts 248°
2026-04-20 06:33 23.70914 54.74674 29876 ft 449 kts 248°
2026-04-20 06:33 23.68501 54.68369 29879 ft 450 kts 248°
2026-04-20 06:34 23.66087 54.62064 29882 ft 450 kts 248°
2026-04-20 06:35 23.62452 54.52605 29884 ft 451 kts 248°
2026-04-20 06:35 23.60033 54.46298 29882 ft 450 kts 248°
2026-04-20 06:36 23.57612 54.40004 29879 ft 450 kts 248°
2026-04-20 06:36 23.55184 54.33709 29879 ft 450 kts 248°
2026-04-20 06:37 23.52755 54.27422 29879 ft 450 kts 248°
2026-04-20 06:37 23.50326 54.21142 29879 ft 448 kts 248°
2026-04-20 06:38 23.47920 54.14919 29876 ft 449 kts 248°
2026-04-20 06:38 23.45493 54.08661 29879 ft 448 kts 248°
2026-04-20 06:39 23.43064 54.02406 29882 ft 449 kts 248°
2026-04-20 06:39 23.40627 53.96162 29881 ft 447 kts 248°
2026-04-20 06:40 23.38201 53.89935 29877 ft 447 kts 248°
2026-04-20 06:40 23.35774 53.83702 29876 ft 447 kts 248°
2026-04-20 06:41 23.33305 53.77382 29886 ft 461 kts 248°
2026-04-20 06:41 23.30759 53.70868 29881 ft 471 kts 248°
2026-04-20 06:42 23.28191 53.64315 29877 ft 471 kts 248°
2026-04-20 06:42 23.25622 53.57761 29878 ft 471 kts 248°
2026-04-20 06:43 23.23067 53.51249 29879 ft 471 kts 248°
2026-04-20 06:43 23.20497 53.44698 29876 ft 471 kts 248°
2026-04-20 06:44 23.17923 53.38155 29875 ft 471 kts 248°
2026-04-20 06:44 23.15345 53.31613 29871 ft 471 kts 248°
2026-04-20 06:45 23.12760 53.25082 29863 ft 471 kts 248°
2026-04-20 06:45 23.10175 53.18563 29871 ft 470 kts 248°
2026-04-20 06:46 23.07595 53.12039 29871 ft 470 kts 248°
2026-04-20 06:46 23.05018 53.05520 29867 ft 470 kts 248°
2026-04-20 06:47 23.02431 52.99007 29862 ft 469 kts 248°
2026-04-20 06:47 22.99846 52.92510 29864 ft 469 kts 248°
2026-04-20 06:48 22.97254 52.86013 29866 ft 469 kts 248°
2026-04-20 06:48 22.94664 52.79521 29865 ft 469 kts 248°
2026-04-20 06:49 22.92070 52.73028 29863 ft 469 kts 249°
2026-04-20 06:49 22.89476 52.66549 29864 ft 468 kts 249°
2026-04-20 06:50 22.86885 52.60071 29859 ft 468 kts 249°
2026-04-20 06:50 22.84288 52.53587 29861 ft 468 kts 249°
2026-04-20 06:51 22.82518 52.46890 29858 ft 461 kts 268°
2026-04-20 06:51 22.82582 52.39971 29864 ft 459 kts 273°
2026-04-20 06:52 22.82746 52.33055 29861 ft 459 kts 273°
2026-04-20 06:52 22.82888 52.26138 29857 ft 458 kts 273°
2026-04-20 06:53 22.83027 52.19278 29859 ft 458 kts 273°
2026-04-20 06:53 22.83162 52.12379 29861 ft 458 kts 273°
2026-04-20 06:54 22.83294 52.05477 29853 ft 458 kts 272°
2026-04-20 06:54 22.83425 51.98600 29854 ft 456 kts 272°
2026-04-20 06:55 22.83542 51.91724 29855 ft 456 kts 272°
2026-04-20 06:55 22.83662 51.84854 29852 ft 456 kts 272°
2026-04-20 06:56 22.83775 51.77988 29850 ft 454 kts 273°
2026-04-20 06:56 22.83894 51.71145 29846 ft 454 kts 273°
2026-04-20 06:57 22.84003 51.64350 30066 ft 452 kts 273°
2026-04-20 06:57 22.84053 51.60973 30536 ft 445 kts 273°
2026-04-20 06:57 22.84107 51.57651 31049 ft 437 kts 273°
2026-04-20 06:57 22.84160 51.54385 31554 ft 430 kts 274°
2026-04-20 06:58 22.84212 51.51167 32023 ft 424 kts 274°
2026-04-20 06:58 22.84260 51.47989 32357 ft 421 kts 274°
2026-04-20 06:58 22.84395 51.44836 32697 ft 416 kts 277°
2026-04-20 06:58 22.84606 51.41724 33056 ft 412 kts 277°
2026-04-20 06:59 22.84817 51.38636 33377 ft 409 kts 277°
2026-04-20 06:59 22.85026 51.35574 33669 ft 406 kts 277°
2026-04-20 06:59 22.85238 51.32526 33902 ft 404 kts 277°
2026-04-20 06:59 22.85448 51.29500 34157 ft 401 kts 277°
2026-04-20 07:00 22.85656 51.26493 34303 ft 400 kts 277°
2026-04-20 07:00 22.85865 51.23482 34445 ft 399 kts 277°
2026-04-20 07:00 22.86070 51.20487 34619 ft 398 kts 277°
2026-04-20 07:00 22.86273 51.17498 34777 ft 397 kts 277°
2026-04-20 07:01 22.86475 51.14508 34893 ft 397 kts 277°
2026-04-20 07:01 22.86532 51.11512 35019 ft 399 kts 272°
2026-04-20 07:01 22.86404 51.08510 35160 ft 398 kts 271°
2026-04-20 07:01 22.86259 51.05513 35279 ft 398 kts 271°
2026-04-20 07:02 22.86114 51.02523 35391 ft 397 kts 271°
2026-04-20 07:02 22.85969 50.99533 35506 ft 396 kts 272°
2026-04-20 07:02 22.85825 50.96551 35614 ft 396 kts 272°
2026-04-20 07:03 22.85534 50.90602 35822 ft 395 kts 272°
2026-04-20 07:03 22.85247 50.84639 35858 ft 398 kts 272°
2026-04-20 07:04 22.84956 50.78675 35844 ft 400 kts 271°
2026-04-20 07:04 22.84657 50.72645 35829 ft 401 kts 271°
2026-04-20 07:05 22.84356 50.66601 35829 ft 401 kts 272°
2026-04-20 07:05 22.84061 50.60557 35830 ft 402 kts 271°
2026-04-20 07:06 22.83759 50.54505 35832 ft 402 kts 271°
2026-04-20 07:06 22.83455 50.48459 35833 ft 402 kts 271°
2026-04-20 07:07 22.83146 50.42412 35830 ft 402 kts 271°
2026-04-20 07:07 22.82833 50.36370 35827 ft 401 kts 271°
2026-04-20 07:08 22.82523 50.30344 35837 ft 399 kts 271°
2026-04-20 07:08 22.82210 50.24330 35826 ft 400 kts 271°
2026-04-20 07:09 22.81896 50.18307 35821 ft 400 kts 271°
2026-04-20 07:09 22.81577 50.12291 35824 ft 400 kts 271°
2026-04-20 07:10 22.81256 50.06279 35822 ft 400 kts 271°
2026-04-20 07:10 22.80936 50.00308 35823 ft 400 kts 271°
2026-04-20 07:11 22.80612 49.94295 35822 ft 399 kts 271°
2026-04-20 07:11 22.80286 49.88291 35822 ft 399 kts 271°
2026-04-20 07:12 22.79958 49.82294 35817 ft 399 kts 271°
2026-04-20 07:12 22.79629 49.76294 35823 ft 399 kts 271°
2026-04-20 07:13 22.79291 49.70295 35818 ft 399 kts 271°
2026-04-20 07:13 22.78955 49.64301 35824 ft 399 kts 271°
2026-04-20 07:14 22.78618 49.58309 35824 ft 399 kts 271°
2026-04-20 07:14 22.78337 49.53324 35826 ft 399 kts 271°
2026-04-20 07:15 22.77994 49.47324 35822 ft 399 kts 270°
2026-04-20 07:15 22.77653 49.41320 35826 ft 399 kts 270°
2026-04-20 07:16 22.77308 49.35318 35824 ft 399 kts 270°
2026-04-20 07:16 22.76961 49.29349 35822 ft 396 kts 270°
2026-04-20 07:17 22.76613 49.23391 35827 ft 397 kts 270°
2026-04-20 07:17 22.76258 49.17419 35828 ft 397 kts 270°
2026-04-20 07:18 22.75908 49.11482 35831 ft 398 kts 270°
2026-04-20 07:18 22.75553 49.05501 35830 ft 398 kts 270°
2026-04-20 07:19 22.75195 48.99514 35832 ft 398 kts 270°
2026-04-20 07:19 22.74833 48.93526 35833 ft 399 kts 270°
2026-04-20 07:20 22.74469 48.87534 35839 ft 399 kts 270°
2026-04-20 07:20 22.74103 48.81535 35839 ft 399 kts 270°
2026-04-20 07:21 22.73736 48.75536 35842 ft 399 kts 270°
2026-04-20 07:21 22.73350 48.69537 35845 ft 399 kts 270°
2026-04-20 07:22 22.72984 48.63540 35837 ft 398 kts 270°
2026-04-20 07:22 22.72614 48.57548 35843 ft 399 kts 270°
2026-04-20 07:23 22.72242 48.51554 35842 ft 399 kts 270°
2026-04-20 07:23 22.71863 48.45587 35843 ft 400 kts 270°
2026-04-20 07:24 22.71477 48.39580 35841 ft 400 kts 270°
2026-04-20 07:24 22.71095 48.33588 35856 ft 396 kts 270°
2026-04-20 07:25 22.70713 48.27622 35847 ft 397 kts 270°
2026-04-20 07:25 22.70331 48.21655 35844 ft 398 kts 269°
2026-04-20 07:26 22.69940 48.15676 35847 ft 398 kts 269°
2026-04-20 07:26 22.69933 48.09718 35847 ft 394 kts 280°
2026-04-20 07:27 22.71728 48.04171 35848 ft 394 kts 298°
2026-04-20 07:27 22.75355 47.99694 35849 ft 403 kts 317°
2026-04-20 07:28 22.80143 47.96402 35858 ft 409 kts 322°
2026-04-20 07:28 22.84985 47.93222 35860 ft 410 kts 321°
2026-04-20 07:29 22.89843 47.89975 35854 ft 410 kts 321°
2026-04-20 07:29 22.94695 47.86714 35859 ft 410 kts 321°
2026-04-20 07:30 22.99540 47.83448 35863 ft 410 kts 321°
2026-04-20 07:30 23.04392 47.80187 35870 ft 410 kts 321°
2026-04-20 07:31 23.09235 47.76923 35869 ft 410 kts 321°
2026-04-20 07:31 23.14066 47.73637 35875 ft 409 kts 321°
2026-04-20 07:32 23.18902 47.70362 35880 ft 410 kts 321°
2026-04-20 07:32 23.23742 47.67086 35889 ft 410 kts 321°
2026-04-20 07:33 23.28591 47.63825 35884 ft 410 kts 321°
2026-04-20 07:33 23.33433 47.60554 35880 ft 410 kts 321°
2026-04-20 07:34 23.38271 47.57277 35874 ft 410 kts 321°
2026-04-20 07:34 23.43114 47.53999 35894 ft 410 kts 321°
2026-04-20 07:35 23.47599 47.50298 35891 ft 398 kts 308°
2026-04-20 07:35 23.49427 47.48044 35893 ft 397 kts 306°
2026-04-20 07:35 23.52965 47.43485 35907 ft 397 kts 305°
2026-04-20 07:36 23.56546 47.38854 35902 ft 397 kts 305°
2026-04-20 07:36 23.60121 47.34310 35899 ft 397 kts 306°
2026-04-20 07:37 23.63715 47.29736 35897 ft 397 kts 305°
2026-04-20 07:37 23.67301 47.25144 35900 ft 398 kts 306°
2026-04-20 07:38 23.70904 47.20555 35906 ft 398 kts 305°
2026-04-20 07:38 23.74510 47.15969 35905 ft 398 kts 306°
2026-04-20 07:39 23.78115 47.11375 35913 ft 398 kts 305°
2026-04-20 07:39 23.81705 47.06757 35910 ft 399 kts 305°
2026-04-20 07:40 23.85312 47.02150 35910 ft 399 kts 305°
2026-04-20 07:40 23.88915 46.97537 35913 ft 399 kts 305°
2026-04-20 07:41 23.92510 46.92918 35918 ft 399 kts 305°
2026-04-20 07:41 23.96103 46.88296 35921 ft 399 kts 305°
2026-04-20 07:42 23.99694 46.83673 35919 ft 399 kts 305°
2026-04-20 07:42 24.03288 46.79050 35923 ft 399 kts 305°
2026-04-20 07:43 24.06881 46.74422 35926 ft 399 kts 305°
2026-04-20 07:43 24.10476 46.69787 35930 ft 399 kts 305°
2026-04-20 07:44 24.14075 46.65142 35939 ft 400 kts 305°
2026-04-20 07:44 24.17673 46.60499 35938 ft 400 kts 305°
2026-04-20 07:45 24.21270 46.55849 35940 ft 400 kts 305°
2026-04-20 07:45 24.24840 46.51225 35942 ft 400 kts 305°
2026-04-20 07:46 24.28432 46.46554 35934 ft 400 kts 304°
2026-04-20 07:46 24.32030 46.41891 35939 ft 401 kts 305°
2026-04-20 07:47 24.35633 46.37215 35945 ft 401 kts 305°
2026-04-20 07:47 24.39233 46.32535 35950 ft 402 kts 304°
2026-04-20 07:48 24.42847 46.27838 35943 ft 403 kts 304°
2026-04-20 07:48 24.46464 46.23125 35950 ft 404 kts 304°
2026-04-20 07:49 24.50055 46.18393 35937 ft 404 kts 304°
2026-04-20 07:49 24.53675 46.13668 35942 ft 404 kts 304°
2026-04-20 07:50 24.57293 46.08972 35951 ft 403 kts 304°
2026-04-20 07:50 24.60900 46.04258 35945 ft 403 kts 304°
2026-04-20 07:51 24.64520 45.99541 35945 ft 404 kts 304°
2026-04-20 07:51 24.68126 45.94820 35940 ft 402 kts 304°
2026-04-20 07:52 24.71722 45.90111 35968 ft 401 kts 304°
2026-04-20 07:52 24.75307 45.85401 35958 ft 402 kts 304°
2026-04-20 07:53 24.78896 45.80683 35950 ft 402 kts 304°
2026-04-20 07:53 24.82467 45.75989 35935 ft 402 kts 304°
2026-04-20 07:54 24.86053 45.71263 35954 ft 401 kts 304°
2026-04-20 07:54 24.89625 45.66556 35948 ft 401 kts 304°
2026-04-20 07:55 24.93205 45.61838 35948 ft 401 kts 304°
2026-04-20 07:55 24.96784 45.57106 35940 ft 402 kts 304°
2026-04-20 07:56 25.00362 45.52378 35969 ft 401 kts 304°
2026-04-20 07:56 25.03925 45.47662 35955 ft 401 kts 304°
2026-04-20 07:57 25.07497 45.42936 35955 ft 401 kts 304°
2026-04-20 07:57 25.11074 45.38196 35954 ft 401 kts 304°
2026-04-20 07:58 25.14618 45.33492 35973 ft 398 kts 304°
2026-04-20 07:58 25.18144 45.28764 35964 ft 399 kts 304°
2026-04-20 07:59 25.21693 45.24031 35962 ft 400 kts 304°
2026-04-20 07:59 25.25232 45.19281 35969 ft 401 kts 304°
2026-04-20 08:00 25.28781 45.14573 35969 ft 398 kts 304°
2026-04-20 08:00 25.32330 45.09873 35971 ft 398 kts 304°
2026-04-20 08:01 25.35839 45.05184 35972 ft 399 kts 304°
2026-04-20 08:01 25.39377 45.00446 35971 ft 400 kts 304°
2026-04-20 08:02 25.42912 44.95701 35969 ft 400 kts 303°
2026-04-20 08:02 25.46446 44.90976 35967 ft 398 kts 303°
2026-04-20 08:03 25.49997 44.86254 35967 ft 399 kts 303°
2026-04-20 08:03 25.53539 44.81516 35985 ft 398 kts 303°
2026-04-20 08:04 25.56466 44.77587 35976 ft 398 kts 303°
2026-04-20 08:04 25.59991 44.72849 35975 ft 399 kts 303°
2026-04-20 08:05 25.63520 44.68100 35974 ft 399 kts 303°
2026-04-20 08:05 25.67050 44.63345 35974 ft 399 kts 303°
2026-04-20 08:06 25.70565 44.58610 35978 ft 398 kts 303°
2026-04-20 08:06 25.74071 44.53868 35973 ft 398 kts 303°
2026-04-20 08:07 25.77583 44.49122 35976 ft 398 kts 303°
2026-04-20 08:07 25.81099 44.44377 35976 ft 398 kts 303°
2026-04-20 08:08 25.84605 44.39618 35976 ft 399 kts 302°
2026-04-20 08:08 25.88128 44.34846 35974 ft 400 kts 303°
2026-04-20 08:09 25.91648 44.30072 35975 ft 400 kts 303°
2026-04-20 08:09 25.95169 44.25300 35974 ft 399 kts 302°
2026-04-20 08:10 25.98687 44.20511 35975 ft 400 kts 302°
2026-04-20 08:10 26.02215 44.15705 35977 ft 402 kts 302°
2026-04-20 08:11 26.05727 44.10919 35971 ft 402 kts 302°
2026-04-20 08:11 26.09269 44.06088 35967 ft 403 kts 302°
2026-04-20 08:12 26.12790 44.01272 35952 ft 402 kts 302°
2026-04-20 08:12 26.16321 43.96440 35942 ft 403 kts 302°
2026-04-20 08:13 26.19866 43.91602 35923 ft 402 kts 302°
2026-04-20 08:13 26.23401 43.86755 35911 ft 403 kts 302°
2026-04-20 08:14 26.26940 43.81912 35911 ft 401 kts 301°
2026-04-20 08:14 26.30341 43.77009 35906 ft 397 kts 296°
2026-04-20 08:15 26.33230 43.71784 35905 ft 394 kts 295°
2026-04-20 08:15 26.36080 43.66563 35909 ft 395 kts 295°
2026-04-20 08:16 26.38941 43.61335 35936 ft 393 kts 294°
2026-04-20 08:16 26.41758 43.56187 35938 ft 392 kts 294°
2026-04-20 08:17 26.44602 43.50991 35950 ft 393 kts 294°
2026-04-20 08:17 26.47440 43.45791 35962 ft 391 kts 294°
2026-04-20 08:18 26.50271 43.40609 35981 ft 387 kts 294°
2026-04-20 08:18 26.53061 43.35488 35970 ft 386 kts 294°
2026-04-20 08:19 26.55847 43.30382 35972 ft 384 kts 294°
2026-04-20 08:19 26.58626 43.25268 35966 ft 385 kts 294°
2026-04-20 08:20 26.61393 43.20168 35980 ft 382 kts 294°
2026-04-20 08:20 26.64156 43.15073 35973 ft 384 kts 294°
2026-04-20 08:21 26.66924 43.09970 35972 ft 383 kts 294°
2026-04-20 08:21 26.69662 43.04897 35969 ft 384 kts 294°
2026-04-20 08:22 26.72404 42.99791 35977 ft 383 kts 294°
2026-04-20 08:22 26.75172 42.94682 35974 ft 383 kts 294°
2026-04-20 08:23 26.77930 42.89576 35969 ft 383 kts 294°
2026-04-20 08:23 26.80705 42.84470 35966 ft 384 kts 294°
2026-04-20 08:24 26.83455 42.79371 35966 ft 383 kts 294°
2026-04-20 08:24 26.86211 42.74250 35965 ft 383 kts 293°
2026-04-20 08:25 26.88960 42.69148 35967 ft 383 kts 294°
2026-04-20 08:25 26.91703 42.64024 35967 ft 383 kts 293°
2026-04-20 08:26 26.94451 42.58914 35973 ft 383 kts 293°
2026-04-20 08:26 26.97182 42.53768 35967 ft 384 kts 293°
2026-04-20 08:27 26.99940 42.48645 35969 ft 384 kts 293°
2026-04-20 08:27 27.02691 42.43505 35973 ft 383 kts 293°
2026-04-20 08:28 27.05431 42.38372 35978 ft 385 kts 292°
2026-04-20 08:28 27.08161 42.33251 35975 ft 384 kts 292°
2026-04-20 08:29 27.10899 42.28096 35982 ft 384 kts 292°
2026-04-20 08:29 27.13646 42.22943 35978 ft 385 kts 292°
2026-04-20 08:30 27.16388 42.17777 35993 ft 385 kts 292°
2026-04-20 08:30 27.19134 42.12600 35977 ft 385 kts 292°
2026-04-20 08:31 27.21884 42.07419 35982 ft 387 kts 292°
2026-04-20 08:31 27.24611 42.02267 35982 ft 386 kts 292°
2026-04-20 08:32 27.27352 41.97067 36020 ft 388 kts 292°
2026-04-20 08:32 27.30123 41.91828 35997 ft 391 kts 292°
2026-04-20 08:33 27.34257 41.83924 35991 ft 391 kts 292°
2026-04-20 08:34 27.37029 41.78656 35991 ft 391 kts 292°
2026-04-20 08:34 27.39810 41.73395 35998 ft 391 kts 292°
2026-04-20 08:35 27.43148 41.68463 35988 ft 411 kts 307°
2026-04-20 08:35 27.45489 41.66495 35993 ft 429 kts 317°
2026-04-20 08:35 27.48149 41.64899 36005 ft 436 kts 321°
2026-04-20 08:36 27.53539 41.61870 35992 ft 434 kts 321°
2026-04-20 08:36 27.58914 41.58768 35983 ft 434 kts 320°
2026-04-20 08:37 27.64285 41.55641 36008 ft 434 kts 320°
2026-04-20 08:37 27.69618 41.52520 36014 ft 432 kts 320°
2026-04-20 08:38 27.74961 41.49388 35988 ft 433 kts 320°
2026-04-20 08:38 27.80320 41.46252 35984 ft 433 kts 320°
2026-04-20 08:39 27.85670 41.43115 35986 ft 434 kts 320°
2026-04-20 08:39 27.91024 41.39978 35976 ft 434 kts 320°
2026-04-20 08:40 27.96371 41.36844 35999 ft 432 kts 320°
2026-04-20 08:40 28.01711 41.33702 36001 ft 432 kts 320°
2026-04-20 08:41 28.07016 41.30581 35983 ft 433 kts 320°
2026-04-20 08:41 28.12351 41.27433 36018 ft 432 kts 320°
2026-04-20 08:41 28.15012 41.25865 36193 ft 429 kts 320°
2026-04-20 08:42 28.17645 41.24314 36410 ft 425 kts 319°
2026-04-20 08:42 28.20253 41.22777 36659 ft 421 kts 319°
2026-04-20 08:42 28.22840 41.21248 36918 ft 418 kts 319°
2026-04-20 08:43 28.27999 41.18199 37085 ft 418 kts 319°
2026-04-20 08:43 28.30573 41.16676 37249 ft 416 kts 319°
2026-04-20 08:43 28.33139 41.15153 37348 ft 416 kts 319°
2026-04-20 08:43 28.35708 41.13630 37454 ft 416 kts 319°
2026-04-20 08:44 28.38266 41.12115 37637 ft 414 kts 318°
2026-04-20 08:44 28.40813 41.10605 37796 ft 412 kts 318°
2026-04-20 08:44 28.43348 41.09098 37887 ft 412 kts 318°
2026-04-20 08:45 28.48421 41.06083 38014 ft 412 kts 318°
2026-04-20 08:45 28.53516 41.03040 38022 ft 414 kts 317°
2026-04-20 08:46 28.58315 40.99551 38004 ft 409 kts 313°
2026-04-20 08:46 28.63058 40.95950 37993 ft 411 kts 313°
2026-04-20 08:47 28.67799 40.92367 37998 ft 412 kts 313°
2026-04-20 08:47 28.72572 40.88753 37999 ft 413 kts 313°
2026-04-20 08:48 28.77359 40.85125 37998 ft 413 kts 313°
2026-04-20 08:48 28.82146 40.81495 37994 ft 413 kts 313°
2026-04-20 08:49 28.86931 40.77860 37992 ft 413 kts 313°
2026-04-20 08:49 28.91713 40.74227 37991 ft 413 kts 313°
2026-04-20 08:50 28.96496 40.70583 37994 ft 413 kts 313°
2026-04-20 08:50 29.01271 40.66945 37994 ft 413 kts 313°
2026-04-20 08:51 29.06062 40.63300 38000 ft 413 kts 313°
2026-04-20 08:51 29.10841 40.59651 38030 ft 413 kts 313°
2026-04-20 08:52 29.15635 40.55981 38002 ft 415 kts 313°
2026-04-20 08:52 29.20445 40.52297 38006 ft 416 kts 314°
2026-04-20 08:53 29.25258 40.48612 38009 ft 416 kts 313°
2026-04-20 08:53 29.30077 40.44916 38007 ft 418 kts 314°
2026-04-20 08:54 29.34906 40.41208 37997 ft 418 kts 314°
2026-04-20 08:54 29.39743 40.37493 37998 ft 418 kts 314°
2026-04-20 08:55 29.43758 40.34402 38016 ft 419 kts 314°
2026-04-20 08:55 29.48600 40.30666 38001 ft 420 kts 314°
2026-04-20 08:56 29.53458 40.26916 38005 ft 420 kts 314°
2026-04-20 08:56 29.58313 40.23168 38024 ft 421 kts 314°
2026-04-20 08:57 29.63180 40.19402 38020 ft 422 kts 314°
2026-04-20 08:57 29.68053 40.15629 38021 ft 422 kts 314°
2026-04-20 08:58 29.72928 40.11856 38064 ft 422 kts 314°
2026-04-20 08:58 29.77812 40.08068 38031 ft 424 kts 314°
2026-04-20 08:59 29.82899 40.04479 38027 ft 430 kts 317°
2026-04-20 08:59 29.88060 40.00973 38035 ft 431 kts 317°
2026-04-20 09:00 29.93201 39.97474 38015 ft 432 kts 317°
2026-04-20 09:00 29.98365 39.93948 38008 ft 432 kts 317°
2026-04-20 09:01 30.03540 39.90415 38031 ft 432 kts 317°
2026-04-20 09:01 30.08721 39.86870 37992 ft 433 kts 317°
2026-04-20 09:02 30.13905 39.83317 37989 ft 434 kts 317°
2026-04-20 09:02 30.19088 39.79754 38007 ft 434 kts 317°
2026-04-20 09:03 30.24280 39.76188 37987 ft 434 kts 317°
2026-04-20 09:03 30.29468 39.72626 37987 ft 434 kts 317°
2026-04-20 09:04 30.34653 39.69047 37998 ft 435 kts 317°
2026-04-20 09:04 30.39855 39.65463 37982 ft 436 kts 318°
2026-04-20 09:05 30.45055 39.61861 37972 ft 435 kts 317°
2026-04-20 09:05 30.50234 39.58231 37971 ft 435 kts 317°
2026-04-20 09:06 30.55388 39.54627 37977 ft 435 kts 317°
2026-04-20 09:06 30.60610 39.50976 38010 ft 435 kts 318°
2026-04-20 09:07 30.65769 39.47354 37984 ft 437 kts 318°
2026-04-20 09:07 30.70974 39.43697 37970 ft 437 kts 318°
2026-04-20 09:08 30.76185 39.40036 37966 ft 437 kts 318°
2026-04-20 09:08 30.81388 39.36374 37960 ft 437 kts 318°
2026-04-20 09:09 30.86589 39.32707 37974 ft 438 kts 318°
2026-04-20 09:09 30.91803 39.29034 37979 ft 438 kts 318°
2026-04-20 09:10 30.97021 39.25348 37959 ft 439 kts 318°
2026-04-20 09:10 31.02084 39.21474 37955 ft 426 kts 309°
2026-04-20 09:10 31.04101 39.19034 37956 ft 412 kts 299°
2026-04-20 09:11 31.05598 39.16258 37956 ft 399 kts 289°
2026-04-20 09:11 31.07515 39.10256 37973 ft 394 kts 283°
2026-04-20 09:12 31.09308 39.04190 37957 ft 396 kts 283°
2026-04-20 09:12 31.11132 38.98168 37953 ft 397 kts 283°
2026-04-20 09:13 31.12983 38.92097 37952 ft 397 kts 283°
2026-04-20 09:13 31.14830 38.86020 37959 ft 398 kts 283°
2026-04-20 09:14 31.16678 38.79925 37953 ft 398 kts 283°
2026-04-20 09:14 31.18536 38.73828 37953 ft 399 kts 283°
2026-04-20 09:15 31.20389 38.67726 37950 ft 399 kts 283°
2026-04-20 09:15 31.22235 38.61615 37960 ft 399 kts 283°
2026-04-20 09:16 31.24081 38.55497 37962 ft 399 kts 283°
2026-04-20 09:16 31.25928 38.49369 37950 ft 400 kts 283°
2026-04-20 09:17 31.27771 38.43238 37950 ft 400 kts 283°
2026-04-20 09:17 31.29613 38.37098 37956 ft 400 kts 283°
2026-04-20 09:18 31.31453 38.30962 37955 ft 400 kts 283°
2026-04-20 09:18 31.33288 38.24817 37963 ft 400 kts 283°
2026-04-20 09:19 31.35117 38.18670 37958 ft 400 kts 283°
2026-04-20 09:19 31.36950 38.12511 37946 ft 401 kts 283°
2026-04-20 09:20 31.38786 38.06345 37956 ft 401 kts 283°
2026-04-20 09:20 31.40617 38.00167 37943 ft 402 kts 283°
2026-04-20 09:21 31.42427 37.94061 37618 ft 388 kts 283°
2026-04-20 09:21 31.43302 37.91091 37345 ft 386 kts 283°
2026-04-20 09:21 31.44179 37.88119 37080 ft 386 kts 283°
2026-04-20 09:21 31.45043 37.85188 36823 ft 386 kts 283°
2026-04-20 09:22 31.45915 37.82217 36572 ft 386 kts 283°
2026-04-20 09:22 31.46785 37.79257 36076 ft 383 kts 283°
2026-04-20 09:22 31.47652 37.76307 35453 ft 382 kts 284°
2026-04-20 09:22 31.48514 37.73368 34821 ft 382 kts 283°
2026-04-20 09:23 31.49233 37.70389 34153 ft 378 kts 278°
2026-04-20 09:23 31.49540 37.67348 33360 ft 375 kts 270°
2026-04-20 09:23 31.49557 37.64294 32591 ft 375 kts 268°
2026-04-20 09:23 31.49532 37.61230 31830 ft 376 kts 268°
2026-04-20 09:24 31.49513 37.58164 31053 ft 377 kts 268°
2026-04-20 09:24 31.49502 37.55089 30339 ft 377 kts 268°
2026-04-20 09:24 31.49497 37.52017 29498 ft 378 kts 268°
2026-04-20 09:24 31.49493 37.48922 28609 ft 379 kts 268°
2026-04-20 09:25 31.49488 37.45842 27882 ft 377 kts 268°
2026-04-20 09:25 31.49477 37.42737 27203 ft 382 kts 268°
2026-04-20 09:25 31.49468 37.39636 26504 ft 379 kts 268°
2026-04-20 09:25 31.49458 37.36556 25815 ft 377 kts 269°
2026-04-20 09:26 31.49446 37.33494 25158 ft 374 kts 268°
2026-04-20 09:26 31.49435 37.30455 24502 ft 372 kts 269°
2026-04-20 09:26 31.49423 37.27431 23838 ft 370 kts 269°
2026-04-20 09:26 31.49411 37.24419 23114 ft 369 kts 268°
2026-04-20 09:27 31.49398 37.21416 22365 ft 368 kts 268°
2026-04-20 09:27 31.49385 37.18427 21613 ft 366 kts 268°
2026-04-20 09:27 31.49373 37.15449 20908 ft 364 kts 268°
2026-04-20 09:27 31.49359 37.12495 20250 ft 361 kts 268°
2026-04-20 09:28 31.49343 37.09568 19626 ft 358 kts 268°
2026-04-20 09:28 31.49329 37.06696 19024 ft 356 kts 268°
2026-04-20 09:28 31.49314 37.03806 18471 ft 353 kts 268°
2026-04-20 09:28 31.49512 37.00946 18090 ft 355 kts 278°
2026-04-20 09:29 31.50200 36.98158 17969 ft 358 kts 284°
2026-04-20 09:29 31.51016 36.95393 17939 ft 358 kts 285°
2026-04-20 09:29 31.51829 36.92633 17946 ft 358 kts 285°
2026-04-20 09:29 31.52636 36.89872 17953 ft 358 kts 285°
2026-04-20 09:30 31.53441 36.87111 17960 ft 358 kts 285°
2026-04-20 09:30 31.54244 36.84352 17969 ft 358 kts 285°
2026-04-20 09:30 31.55041 36.81615 17705 ft 350 kts 284°
2026-04-20 09:30 31.55832 36.78891 16644 ft 356 kts 285°
2026-04-20 09:31 31.56634 36.76113 15514 ft 364 kts 285°
2026-04-20 09:31 31.57445 36.73305 14912 ft 359 kts 285°
2026-04-20 09:31 31.58236 36.70593 14645 ft 344 kts 285°
2026-04-20 09:31 31.58993 36.67994 14449 ft 329 kts 285°
2026-04-20 09:32 31.59715 36.65508 14281 ft 314 kts 285°
2026-04-20 09:32 31.60400 36.63140 14125 ft 300 kts 285°
2026-04-20 09:32 31.61055 36.60876 13977 ft 286 kts 285°
2026-04-20 09:32 31.61680 36.58691 13587 ft 281 kts 284°
2026-04-20 09:33 31.62305 36.56519 13035 ft 280 kts 285°
2026-04-20 09:33 31.62928 36.54355 12532 ft 280 kts 285°
2026-04-20 09:33 31.63542 36.52229 12035 ft 279 kts 285°
2026-04-20 09:33 31.64169 36.50051 11565 ft 277 kts 286°
2026-04-20 09:34 31.64880 36.47995 11101 ft 277 kts 297°
2026-04-20 09:34 31.66096 36.46189 10627 ft 280 kts 309°
2026-04-20 09:34 31.68775 36.42884 9724 ft 278 kts 310°
2026-04-20 09:35 31.70096 36.41233 9251 ft 276 kts 310°
2026-04-20 09:35 31.71398 36.39597 8859 ft 272 kts 309°
2026-04-20 09:35 31.72657 36.38003 8517 ft 266 kts 309°
2026-04-20 09:35 31.73882 36.36439 8331 ft 254 kts 309°
2026-04-20 09:36 31.75064 36.34928 8194 ft 242 kts 309°
2026-04-20 09:36 31.76160 36.33527 8043 ft 230 kts 309°
2026-04-20 09:36 31.77291 36.32221 7775 ft 230 kts 322°
2026-04-20 09:36 31.78789 36.31495 7577 ft 238 kts 345°
2026-04-20 09:37 31.80465 36.31490 7419 ft 247 kts
2026-04-20 09:37 31.82065 36.32288 7264 ft 256 kts 31°
2026-04-20 09:37 31.83314 36.33810 7104 ft 264 kts 56°
2026-04-20 09:37 31.83932 36.35825 6939 ft 265 kts 83°
2026-04-20 09:38 31.83773 36.37974 6927 ft 265 kts 110°
2026-04-20 09:38 31.83079 36.39977 6936 ft 264 kts 124°
2026-04-20 09:38 31.81943 36.41628 6953 ft 257 kts 143°
2026-04-20 09:38 31.80450 36.42691 6951 ft 248 kts 167°
2026-04-20 09:39 31.78786 36.42943 6953 ft 238 kts 192°
2026-04-20 09:39 31.77197 36.42540 6962 ft 231 kts 209°
2026-04-20 09:39 31.75926 36.41474 6959 ft 223 kts 234°
2026-04-20 09:39 31.75198 36.39910 6966 ft 217 kts 257°
2026-04-20 09:40 31.75240 36.38163 6973 ft 217 kts 283°
2026-04-20 09:40 31.75658 36.36457 6980 ft 217 kts 283°
2026-04-20 09:40 31.75970 36.34719 6982 ft 219 kts 277°
2026-04-20 09:40 31.76086 36.32942 6980 ft 217 kts 270°
2026-04-20 09:41 31.76037 36.31157 6980 ft 219 kts 266°
2026-04-20 09:41 31.75883 36.29396 6894 ft 209 kts 263°
2026-04-20 09:41 31.75699 36.27781 6705 ft 194 kts 262°
2026-04-20 09:41 31.75487 36.26219 6486 ft 193 kts 261°
2026-04-20 09:42 31.75341 36.25191 6344 ft 193 kts 262°
2026-04-20 09:42 31.75117 36.23625 6088 ft 194 kts 261°
2026-04-20 09:42 31.74894 36.22070 5833 ft 193 kts 261°
2026-04-20 09:42 31.74673 36.20530 5580 ft 188 kts 261°
2026-04-20 09:43 31.74455 36.19019 5326 ft 188 kts 262°
2026-04-20 09:43 31.74235 36.17484 5071 ft 188 kts 262°
2026-04-20 09:43 31.74029 36.16052 4891 ft 169 kts 261°
2026-04-20 09:43 31.73839 36.14738 4660 ft 157 kts 261°
2026-04-20 09:44 31.73673 36.13585 4460 ft 131 kts 261°
2026-04-20 09:44 31.73524 36.12546 4264 ft 128 kts 263°
2026-04-20 09:44 31.73376 36.11517 4076 ft 128 kts 262°
2026-04-20 09:44 31.73229 36.10497 3918 ft 125 kts 263°
2026-04-20 09:45 31.73085 36.09494 3743 ft 125 kts 261°
2026-04-20 09:45 31.72940 36.08490 3587 ft 124 kts 262°
2026-04-20 09:45 31.72797 36.07494 3414 ft 124 kts 261°
2026-04-20 09:45 31.72654 36.06496 3231 ft 121 kts 260°
2026-04-20 09:46 31.72513 36.05519 3057 ft 122 kts 258°
2026-04-20 09:46 31.72370 36.04519 2873 ft 125 kts 259°
2026-04-20 09:46 31.72224 36.03509 2704 ft 126 kts 258°
2026-04-20 09:46 31.72078 36.02498 2523 ft 126 kts 256°
2026-04-20 09:47 31.71935 36.01488 2425 ft 119 kts 252°
2026-04-20 09:47 31.71815 36.00692 2412 ft 71 kts 258°
2026-04-20 09:47 31.71758 36.00273 2414 ft 48 kts 262°
2026-04-20 09:47 31.71750 35.99920 2415 ft 41 kts 289°
2026-04-20 09:48 31.71831 35.99641 2415 ft 26 kts 294°
2026-04-20 09:48 31.71893 35.99463 2414 ft 24 kts 289°
2026-04-20 09:48 31.71901 35.99342 2413 ft 7 kts 261°
2026-04-20 09:48 31.71889 35.99247 2414 ft 14 kts 262°
2026-04-20 09:49 31.71870 35.99124 2413 ft 16 kts 262°
2026-04-20 09:49 31.71847 35.98984 2414 ft 18 kts 271°
2026-04-20 09:49 31.71928 35.98899 2414 ft 15 kts 349°
2026-04-20 09:49 31.72004 35.98943 2414 ft 10 kts 43°
2026-04-20 09:50 31.72056 35.98945 2414 ft 6 kts 351°
2026-04-20 09:50 31.72092 35.98939 2414 ft 0 kts 351°
2026-04-20 09:50 31.72095 35.98938 2414 ft 0 kts 351°